AD4CG Weather Reports


time (UTC)temp
C
wind
direction
speed
KPH
gust
KPH
rain 1hr
cm
rain 24hr
cm
rain mn
cm
humidity
%
barometer
mb
20260508085522 11 14 0.0 4.8 0.00 0.48 1.80 100 1015.2
20260508084946 11 14 0.0 4.8 0.00 0.51 1.80 100 1015.2
20260508084440 11 14 0.0 4.8 0.00 0.51 1.80 100 1014.9
20260508083911 11 14 0.0 4.8 0.00 0.56 1.80 100 1015.2
20260508083352 11 14 0.0 4.8 0.00 0.58 1.80 100 1015.2
20260508082831 11 14 0.0 4.8 0.00 0.61 1.80 100 1014.9
20260508082300 11 14 0.0 4.8 0.00 0.64 1.80 100 1015.2
20260508081752 11 14 0.0 4.8 0.00 0.66 1.80 100 1014.9
20260508081228 11 14 0.0 4.8 0.00 0.66 1.80 100 1014.6
20260508080703 11 14 0.0 4.8 0.00 0.69 1.80 100 1014.9
20260508080146 11 14 0.0 4.8 0.00 0.69 1.80 100 1015.2
20260508075642 11 14 0.0 4.8 0.00 0.71 1.80 100 1014.6
20260508075106 11 14 0.0 4.8 0.00 0.71 1.80 100 1014.6
20260508074548 11 14 0.0 4.8 0.00 0.71 1.80 100 1014.2
20260508074015 11 14 0.0 4.8 0.00 0.74 1.80 100 1014.6
20260508073508 11 14 0.0 4.8 0.00 0.76 1.80 100 1014.6
20260508072945 11 14 0.0 4.8 0.00 0.76 1.80 100 1014.6
20260508072424 11 14 0.0 4.8 0.00 0.76 1.80 100 1014.2
20260508071904 11 14 0.0 4.8 0.00 0.76 1.80 100 1014.2
20260508071348 11 14 0.0 4.8 0.00 0.76 1.80 100 1014.6
20260508070828 11 14 0.0 4.8 0.00 0.76 1.80 100 1014.6
20260508070304 11 14 0.0 4.8 0.00 0.76 1.80 100 1014.2
20260508065731 11 14 0.0 4.8 0.00 0.76 1.80 100 1014.2
20260508065226 11 14 0.0 4.8 0.00 0.76 1.80 100 1014.6
20260508064702 11 14 0.0 4.8 0.00 0.76 1.80 100 1014.2
20260508064147 11 14 0.0 4.8 0.00 0.76 1.80 100 1014.2
20260508063626 11 14 0.0 4.8 0.00 0.76 1.80 100 1014.6
20260508063107 11 14 0.0 4.8 0.00 0.76 1.80 100 1014.2
20260508062534 11 14 0.0 4.8 0.00 0.76 1.80 100 1014.6
20260508062008 11 14 0.0 4.8 0.00 0.76 1.80 100 1014.2
20260508061459 11 14 0.0 4.8 0.00 0.76 1.80 100 1014.2
20260508060951 11 14 0.0 4.8 0.00 0.76 1.80 100 1014.2
20260508060416 11 14 0.0 4.8 0.00 0.76 1.80 100 1014.6
20260508055902 11 14 0.0 4.8 0.00 0.76 1.80 100 1014.6
20260508055336 11 14 3.2 4.8 0.00 0.76 1.80 100 1014.2
20260508054820 11 14 0.0 4.8 0.00 0.76 1.80 100 1014.2
20260508054255 11 14 0.0 4.8 0.00 0.76 1.80 100 1014.2
20260508053736 11 14 0.0 4.8 0.00 0.76 1.80 100 1014.2
20260508053219 11 14 0.0 4.8 0.00 0.76 1.80 100 1013.9
20260508052651 11 14 0.0 4.8 0.00 0.76 1.80 100 1014.6
20260508052132 11 14 0.0 4.8 0.00 0.76 1.80 100 1014.6
20260508051606 12 14 0.0 4.8 0.00 0.76 1.80 100 1014.2
20260508051051 12 14 0.0 4.8 0.00 0.76 1.80 100 1013.9
20260508050528 12 14 0.0 4.8 0.00 0.76 1.80 100 1014.2
20260508045954 12 14 0.0 4.8 0.00 0.76 1.80 100 1013.9
20260508045444 12 14 0.0 4.8 0.00 0.79 1.80 100 1013.9
20260508044910 12 14 0.0 4.8 0.00 0.79 1.80 100 1014.2
20260508044342 12 14 0.0 4.8 0.00 0.81 1.80 100 1013.9
20260508043836 12 14 0.0 4.8 0.00 0.84 1.80 100 1013.9
20260508043316 12 14 0.0 4.8 0.00 0.84 1.80 100 1014.2
20260508042756 12 14 0.0 4.8 0.00 0.84 1.80 100 1013.9
20260508042233 12 14 0.0 4.8 0.00 0.84 1.80 100 1013.9
20260508041655 12 14 0.0 4.8 0.00 0.84 1.80 100 1014.2
20260508041132 12 14 1.6 4.8 0.00 0.84 1.80 100 1014.2
20260508040624 12 14 0.0 3.2 0.00 0.84 1.80 100 1013.9
20260508040114 12 14 1.6 1.6 0.00 0.84 1.80 100 1014.2
20260508035541 12 14 0.0 22.5 0.00 0.84 1.80 100 1013.9
20260508035016 12 14 4.8 22.5 0.00 0.86 1.80 100 1014.2
20260508034442 12 14 0.0 22.5 0.00 0.86 1.80 100 1013.9
20260508033915 12 14 0.0 22.5 0.00 0.89 1.80 100 1013.5
20260508033406 12 14 0.0 22.5 0.00 0.89 1.80 100 1013.2
20260508032845 12 14 0.0 22.5 0.00 0.89 1.80 100 1013.5
20260508032324 12 14 1.6 22.5 0.00 0.89 1.80 100 1013.2
20260508031814 12 14 0.0 22.5 0.00 0.89 1.80 100 1013.2
20260508031233 12 14 0.0 22.5 0.00 0.89 1.80 100 1012.9
20260508030705 12 14 0.0 22.5 0.00 0.89 1.80 100 1013.2
20260508030145 12 14 0.0 22.5 0.00 0.89 1.80 100 1013.2
20260508025638 12 14 0.0 22.5 0.00 0.89 1.80 100 1012.5
20260508025052 12 11 0.0 22.5 0.00 0.89 1.80 100 1012.5
20260508024527 12 12 1.6 22.5 0.00 0.89 1.80 100 1012.9
20260508024018 12 11 0.0 22.5 0.00 0.89 1.80 100 1013.2
20260508023449 12 12 1.6 22.5 0.00 0.89 1.80 100 1012.9
20260508022912 12 11 1.6 22.5 0.00 0.89 1.80 100 1012.9
20260508022349 12 11 1.6 22.5 0.00 0.89 1.80 100 1012.9
20260508021844 12 12 1.6 22.5 0.00 0.89 1.80 100 1012.9
20260508021319 12 11 0.0 22.5 0.00 0.89 1.80 100 1013.2
20260508020813 12 11 0.0 22.5 0.00 0.89 1.80 100 1013.2
20260508020244 12 11 1.6 22.5 0.00 0.89 1.80 100 1012.9
20260508015720 12 39 6.4 22.5 0.00 0.89 1.80 100 1012.5
20260508015205 12 39 0.0 22.5 0.00 0.89 1.80 100 1012.5
20260508014653 12 39 0.0 22.5 0.00 0.89 1.80 100 1012.5
20260508014119 12 39 1.6 22.5 0.00 0.89 1.80 100 1012.5
20260508013615 12 39 0.0 22.5 0.00 0.89 1.80 100 1012.5
20260508013038 12 39 0.0 22.5 0.00 0.89 1.80 100 1012.2
20260508012525 12 39 0.0 22.5 0.00 0.89 1.80 100 1012.5
20260508011958 12 39 3.2 22.5 0.00 0.89 1.80 100 1012.2
20260508011456 12 39 0.0 22.5 0.00 0.89 1.80 100 1011.9
20260508010925 12 7 1.6 22.5 0.00 0.89 1.80 100 1011.9
20260508010413 12 8 0.0 22.5 0.00 0.89 1.80 100 1000.3
20260508005851 12 280 3.2 22.5 0.00 0.89 1.80 100 1011.9
20260507233152 12 105 9.7 22.5 0.00 0.86 1.80 100 1010.5
20260507232647 12 35 8.0 22.5 0.00 0.86 1.80 100 1010.2
20260507232140 12 57 8.0 22.5 0.00 0.86 1.80 100 1010.2
20260507231633 12 33 3.2 22.5 0.00 0.86 1.80 100 1010.5
20260507231132 12 12 1.6 22.5 0.00 0.86 1.80 100 1010.2
20260507230621 12 56 4.8 22.5 0.00 0.86 1.80 100 1010.2
20260507230057 12 111 6.4 22.5 0.00 0.86 1.80 100 1010.2
20260507225543 13 67 3.2 22.5 0.00 0.86 1.80 100 1010.2
20260507225008 13 86 4.8 22.5 0.00 0.86 1.80 100 1009.5
20260507224459 13 57 8.0 22.5 0.00 0.86 1.80 100 1010.2
20260507223932 13 346 4.8 22.5 0.00 0.86 1.80 100 1010.2
20260507223420 13 97 16.1 22.5 0.00 0.86 1.80 100 1009.8
20260507222912 13 287 8.0 22.5 0.00 0.86 1.80 100 1010.2
20260507222357 13 29 6.4 22.5 0.00 0.86 1.80 100 1009.5
20260507221852 13 48 11.3 22.5 0.00 0.86 1.80 100 1009.5
20260507221327 13 46 4.8 22.5 0.00 0.86 1.80 100 1009.8
20260507220820 13 34 6.4 22.5 0.00 0.86 1.80 100 1010.2
20260507220300 14 7 4.8 22.5 0.00 0.86 1.80 100 1009.5
20260507215750 14 73 6.4 22.5 0.00 0.86 1.80 100 1009.8
20260507215248 14 328 3.2 22.5 0.00 0.86 1.80 100 1009.8
20260507214208 15 17 1.6 22.5 0.00 0.86 1.80 100 1009.1
20260507213649 15 26 1.6 22.5 0.00 0.86 1.80 100 1009.5
20260507213118 15 36 3.2 22.5 0.00 0.86 1.80 100 1009.1
20260507212609 15 18 6.4 22.5 0.00 0.86 1.80 100 1008.8
20260507212102 15 39 4.8 22.5 0.00 0.86 1.80 100 1008.8
20260507211533 15 32 11.3 22.5 0.00 0.86 1.80 100 1008.8
20260507210954 16 18 6.4 22.5 0.00 0.86 1.80 100 1008.8
20260507210440 16 73 6.4 22.5 0.00 0.86 1.80 100 1008.8
20260507205916 16 61 6.4 22.5 0.00 0.86 1.80 100 1008.5
20260507205340 16 15 6.4 22.5 0.00 0.86 1.80 100 1008.5
20260507204836 16 37 3.2 22.5 0.00 0.86 1.80 100 1008.5
20260507204300 16 26 4.8 22.5 0.00 0.86 1.80 100 1008.1
20260507203752 16 55 6.4 22.5 0.00 0.86 1.80 100 1008.1
20260507203224 16 23 11.3 22.5 0.00 0.86 1.80 100 1008.1
20260507202652 16 41 4.8 22.5 0.00 0.86 1.80 100 1008.1
20260507202139 16 334 17.7 22.5 0.00 0.86 1.80 100 1008.1
20260507201620 17 36 4.8 22.5 0.00 0.86 1.80 100 1008.1
20260507201045 17 296 12.9 22.5 0.00 0.86 1.80 100 1008.1
20260507200528 18 43 8.0 22.5 0.00 0.86 1.80 100 1008.1
20260507200004 20 289 11.3 22.5 0.00 0.86 1.80 100 1008.1
20260507195435 22 21 6.4 20.9 0.00 0.86 1.80 100 1007.8
20260507194921 22 320 4.8 20.9 0.00 0.86 1.80 100 1007.5
20260507194408 22 229 6.4 20.9 0.00 0.86 1.80 100 1007.5
20260507193848 22 292 6.4 20.9 0.00 0.86 1.80 100 1007.5
20260507193340 22 352 9.7 20.9 0.00 0.86 1.80 100 1007.8
20260507192803 22 282 8.0 20.9 0.00 0.86 1.80 100 1007.8
20260507192237 22 235 8.0 20.9 0.00 0.86 1.80 100 1007.8
20260507191708 22 211 0.0 20.9 0.00 0.86 1.80 100 1007.8
20260507191145 21 350 9.7 20.9 0.00 0.86 1.80 100 1007.5
20260507190630 21 227 6.4 20.9 0.00 0.86 1.80 100 1007.5
20260507190124 21 245 1.6 20.9 0.00 0.86 1.80 100 1007.5
20260507185607 21 243 1.6 20.9 0.00 0.86 1.80 100 1007.5
20260507185053 21 250 1.6 20.9 0.00 0.86 1.80 100 1008.1
20260507184537 21 214 6.4 20.9 0.00 0.86 1.80 100 1008.1
20260507184016 21 239 0.0 20.9 0.00 0.86 1.80 100 1008.1
20260507183456 21 236 1.6 20.9 0.00 0.86 1.80 100 1008.8
20260507182941 20 1 1.6 20.9 0.00 0.86 1.80 100 1008.8
20260507182429 20 206 8.0 20.9 0.00 0.86 1.80 100 1008.5
20260507181909 20 342 0.0 20.9 0.00 0.86 1.80 100 1008.8
20260507181358 20 337 6.4 20.9 0.00 0.86 1.80 100 1008.5
20260507180848 20 212 0.0 20.9 0.00 0.86 1.80 100 1008.1
20260507180327 20 241 8.0 20.9 0.00 0.86 1.80 100 1008.5
20260507175815 20 246 1.6 20.9 0.00 0.86 1.80 100 1008.1
20260507175249 20 221 4.8 20.9 0.00 0.86 1.80 100 1008.1
20260507174728 20 235 1.6 20.9 0.00 0.86 1.80 100 1008.5
20260507174219 20 241 0.0 20.9 0.03 0.86 1.80 100 1007.8
20260507173650 20 228 3.2 20.9 0.05 0.86 1.80 100 1008.5
20260507173132 20 213 6.4 20.9 0.08 0.86 1.80 100 1008.8
20260507172619 20 227 1.6 20.9 0.10 0.86 1.80 100 1008.5
20260507172050 20 253 8.0 20.9 0.10 0.86 1.80 100 1008.8
20260507171534 20 238 8.0 20.9 0.13 0.86 1.80 100 1008.8
20260507171011 20 236 6.4 20.9 0.13 0.86 1.80 100 1008.8
20260507170501 20 231 0.0 20.9 0.13 0.86 1.80 100 1009.1
20260507165946 20 235 4.8 20.9 0.13 0.86 1.80 100 1009.1
20260507165429 20 236 0.0 20.9 0.13 0.86 1.78 100 1008.8
20260507164913 19 238 3.2 20.9 0.15 0.86 1.78 100 1009.1
20260507164355 20 229 3.2 20.9 0.15 0.84 1.78 100 1009.5
20260507163837 20 262 1.6 20.9 0.15 0.84 1.75 100 1010.2
20260507163311 20 293 9.7 20.9 0.13 0.79 1.73 100 1009.8
20260507162800 20 236 6.4 20.9 0.10 0.79 1.70 100 1009.8
20260507162239 20 215 3.2 20.9 0.10 0.76 1.70 100 1009.8
20260507161723 20 228 8.0 20.9 0.10 0.76 1.68 100 1009.8
20260507161150 20 246 3.2 20.9 0.10 0.76 1.68 100 1009.5
20260507160627 20 243 4.8 20.9 0.10 0.76 1.68 100 1009.5
20260507160108 20 247 4.8 20.9 0.10 0.74 1.68 100 1009.8
20260507155606 20 241 9.7 20.9 0.10 0.74 1.65 100 1009.8
20260507155104 20 243 0.0 20.9 0.10 0.71 1.65 100 1009.8
20260507154556 20 284 1.6 20.9 0.10 0.71 1.65 100 1009.8
20260507154041 20 197 1.6 20.9 0.10 0.69 1.60 100 1009.5
20260507153521 20 224 4.8 20.9 0.10 0.69 1.60 100 1009.5
20260507153002 20 243 3.2 20.9 0.10 0.66 1.60 100 1009.5
20260507152436 20 215 3.2 20.9 0.13 0.66 1.60 100 1010.2
20260507151923 20 226 0.0 20.9 0.13 0.66 1.60 100 1009.8
20260507151410 20 226 3.2 20.9 0.13 0.66 1.60 100 1009.8
20260507150855 20 234 0.0 20.9 0.10 0.66 1.57 100 1010.2
20260507150343 20 222 6.4 20.9 0.10 0.66 1.57 100 1010.5
20260507145834 20 222 3.2 20.9 0.10 0.64 1.57 100 1010.5
20260507145306 20 217 4.8 20.9 0.10 0.64 1.55 100 1010.5
20260507144745 20 219 3.2 20.9 0.08 0.61 1.55 100 1010.2
20260507144239 20 248 9.7 20.9 0.05 0.58 1.52 100 1010.5
20260507143724 20 245 4.8 20.9 0.05 0.58 1.50 100 1010.2
20260507143204 20 213 6.4 20.9 0.03 0.56 1.50 100 1010.5
20260507142656 20 255 0.0 20.9 0.03 0.56 1.50 100 1010.5
20260507142145 20 275 0.0 20.9 0.00 0.53 1.47 100 1010.5
20260507141631 20 272 1.6 20.9 0.00 0.53 1.47 100 1010.5
20260507141116 20 284 6.4 20.9 0.00 0.53 1.47 100 1010.5
20260507140604 20 294 3.2 20.9 0.00 0.53 1.47 100 1010.5
20260507140034 20 211 0.0 20.9 0.00 0.53 1.47 100 1010.5
20260507135514 20 271 0.0 20.9 0.00 0.53 1.47 100 1010.2
20260507134959 20 228 4.8 20.9 0.00 0.53 1.47 100 1010.5
20260507134431 20 248 0.0 20.9 0.00 0.53 1.47 100 1009.8
20260507133919 20 320 8.0 20.9 0.00 0.53 1.47 100 1010.2
20260507133405 20 212 0.0 20.9 0.00 0.53 1.47 100 1010.2
20260507132841 20 214 6.4 20.9 0.00 0.53 1.47 100 1010.2
20260507132322 20 229 8.0 20.9 0.00 0.53 1.47 100 1009.8
20260507131814 20 231 0.0 20.9 0.00 0.53 1.47 100 1010.2
20260507131312 20 268 6.4 20.9 0.00 0.53 1.47 100 1009.8
20260507130754 20 139 1.6 20.9 0.00 0.53 1.47 100 1009.8
20260507130231 20 227 9.7 20.9 0.00 0.53 1.47 100 1010.2
20260507125712 20 269 3.2 20.9 0.00 0.53 1.47 100 1009.8
20260507125154 20 191 1.6 20.9 0.00 0.53 1.47 100 1010.2
20260507124624 20 223 6.4 20.9 0.00 0.53 1.47 100 1010.2
20260507124109 19 202 3.2 20.9 0.00 0.53 1.47 100 1010.2
20260507123549 19 249 6.4 20.9 0.00 0.53 1.47 100 1010.2
20260507123017 19 243 6.4 20.9 0.00 0.53 1.47 100 1010.8
20260507122500 19 240 4.8 20.9 0.00 0.53 1.47 100 1010.2
20260507121948 19 216 8.0 20.9 0.00 0.53 1.47 100 1010.5
20260507121443 19 238 4.8 20.9 0.00 0.53 1.47 100 1010.8
20260507120934 19 285 9.7 20.9 0.00 0.53 1.47 100 1010.8
20260507120414 19 195 6.4 20.9 0.00 0.53 1.47 100 1010.8
20260507115849 19 221 14.5 20.9 0.03 0.53 1.47 100 1011.2
20260507115334 19 230 1.6 20.9 0.03 0.53 1.47 100 1011.2
20260507114826 19 259 9.7 20.9 0.03 0.53 1.47 100 1011.2
20260507114308 19 230 11.3 20.9 0.03 0.53 1.47 100 1011.2
20260507113759 19 232 9.7 20.9 0.03 0.53 1.47 100 1010.8
20260507113238 19 225 8.0 20.9 0.03 0.53 1.47 100 1011.2
20260507112734 19 210 12.9 20.9 0.03 0.53 1.45 100 1010.8
20260507112229 19 223 6.4 20.9 0.03 0.53 1.45 100 1010.8
20260507111711 19 243 9.7 20.9 0.03 0.53 1.45 100 1011.2
20260507111158 19 231 9.7 20.9 0.05 0.53 1.45 100 1010.8
20260507110636 19 228 14.5 20.9 0.05 0.53 1.45 100 1011.2
20260507110121 19 265 6.4 16.1 0.05 0.53 1.45 100 1011.2
20260507105557 19 218 8.0 16.1 0.05 0.51 1.45 100 1010.8
20260507105044 19 239 3.2 16.1 0.05 0.51 1.45 100 1010.8
20260507104530 19 233 4.8 16.1 0.05 0.51 1.45 100 1010.8
20260507104015 19 246 4.8 16.1 0.05 0.51 1.45 100 1010.8
20260507103450 18 137 12.9 16.1 0.05 0.51 1.45 100 1010.8
20260507102928 19 229 11.3 14.5 0.05 0.51 1.45 100 1010.5
20260507102403 18 233 8.0 14.5 0.05 0.51 1.42 100 1010.5
20260507101846 18 187 3.2 14.5 0.05 0.51 1.42 100 1010.8
20260507101333 18 189 1.6 14.5 0.05 0.48 1.42 100 1010.8
20260507100807 18 229 8.0 14.5 0.05 0.48 1.42 100 1010.2
20260507100300 18 231 6.4 12.9 0.05 0.48 1.42 100 1010.2
20260507095741 18 59 4.8 12.9 0.05 0.48 1.40 100 1009.8
20260507095227 18 234 6.4 12.9 0.08 0.46 1.40 100 1010.2
20260507094712 18 202 0.0 12.9 0.10 0.46 1.40 100 1010.5
20260507094207 18 231 3.2 12.9 0.13 0.46 1.40 100 1010.8
20260507093629 18 233 4.8 12.9 0.15 0.46 1.40 100 1010.8
20260507093119 18 237 1.6 12.9 0.18 0.46 1.40 100 1010.8
20260507092607 18 233 1.6 12.9 0.18 0.46 1.37 100 1010.8
20260507092040 18 241 0.0 12.9 0.20 0.46 1.37 100 1010.8
20260507091514 18 241 3.2 12.9 0.23 0.43 1.37 100 1010.8
20260507091009 18 243 0.0 12.9 0.23 0.43 1.37 100 1010.8
20260507090456 18 226 4.8 12.9 0.23 0.43 1.35 100 1010.8
20260507085941 18 270 4.8 12.9 0.23 0.41 1.35 100 1010.8